This is the latest recevied weather packets stored in our database for station/object HS5AU-13. If no packets are shown the sender has not sent any weather packets the latest 10 day(s).
| Time | Temp. | Humidity | Pressure | Rain* | Wind** | Luminosity | Snow |
|---|---|---|---|---|---|---|---|
| 1788072901 | 24.44° C | 99% | 1002.4 hPa | 0 mm | - | 197 W/m² | - |
| 1788072301 | 23.89° C | 99% | 1002.8 hPa | 0 mm | - | 110 W/m² | - |
| 1788071701 | 24.44° C | 99% | 1002.1 hPa | 0 mm | - | 45 W/m² | - |
| 1788071101 | 24.44° C | 99% | 1001.9 hPa | 0 mm | - | 75 W/m² | - |
| 1788070501 | 25° C | 99% | 1001.3 hPa | 0 mm | - | 104 W/m² | - |
| 1788069901 | 25.56° C | 94% | 1001.5 hPa | 0 mm | - | 120 W/m² | - |
| 1788069301 | 26.11° C | 93% | 1001.7 hPa | 0 mm | - | 259 W/m² | - |
| 1788068701 | 25.56° C | 97% | 1001.4 hPa | 0 mm | - | 210 W/m² | - |
| 1788068101 | 26.11° C | 93% | 1002 hPa | 0 mm | - | 269 W/m² | - |
| 1788067501 | 26.11° C | 94% | 1001.9 hPa | 0 mm | - | 278 W/m² | - |
| 1788066901 | 26.11° C | 94% | 1002.3 hPa | 0 mm | - | 237 W/m² | - |
| 1788065701 | 26.11° C | 98% | 1002.1 hPa | 0 mm | - | 324 W/m² | - |
| 1788065101 | 25.56° C | 97% | 1002 hPa | 0 mm | - | 322 W/m² | - |
| 1788064501 | 25.56° C | 96% | 1002.2 hPa | 0 mm | - | 250 W/m² | - |
| 1788063901 | 25° C | 98% | 1002.3 hPa | 0 mm | - | 267 W/m² | - |
| 1788063301 | 25° C | 99% | 1002.4 hPa | 0 mm | - | 240 W/m² | - |
| 1788062701 | 25° C | 99% | 1002.6 hPa | 0 mm | - | 265 W/m² | - |
| 1788062101 | 25° C | 99% | 1002.7 hPa | 0 mm | - | 208 W/m² | - |
| 1788061501 | 25° C | 99% | 1002.8 hPa | 0 mm | - | 252 W/m² | - |
| 1788060901 | 24.44° C | 99% | 1002.4 hPa | 0 mm | - | 226 W/m² | - |
| 1788060301 | 25° C | 97% | 1002.4 hPa | 0 mm | - | 190 W/m² | - |
| 1788059701 | 25° C | 98% | 1002.1 hPa | 0 mm | - | 247 W/m² | - |
| 1788059101 | 25° C | 94% | 1002.2 hPa | 0 mm | - | 299 W/m² | - |
| 1788058501 | 25° C | 98% | 1002 hPa | 0 mm | - | 293 W/m² | - |
| 1788057901 | 25° C | 97% | 1002.1 hPa | 0 mm | - | 329 W/m² | - |
* Rain latest hour (hover to see other rain measurements)
** Current wind speed in m/s (hover to see current wind gust speed)